{"data":{"norad_id":53423,"epoch":"2026-09-19T20:38:11.835744Z","epoch_age_seconds":130719,"freshness":"FRESH","line1":"1 53423U 22097AM  26262.85985921  .00000041  00000+0  13078-4 0  9999","line2":"2 53423  53.1607 306.7369 0001221  86.8866 273.2275 15.31701582228152","mean_motion":15.31701582,"eccentricity":0.0001221,"inclination_deg":53.1607,"raan_deg":306.7369,"arg_perigee_deg":86.8866,"mean_anomaly_deg":273.2275,"bstar":1.3078e-5,"rev_number":22815,"period_min":94.013090860671,"perigee_km":469.89903206472,"apogee_km":471.57152667534,"semimajor_km":6848.87227937,"source":"CELESTRAK","updated_at":"2026-09-20T09:00:40.230322Z"}}